Starlink 30855

operational
NORAD ID: 58222 Int'l Des: 2023-170 Owner: SPXS Country: US Constellation: starlink
LEOCIRCULAR

Über Starlink 30855

Beschreibung wird geladen...

Live-Position

3D-Globus wird geladen...

Nächste Überflüge

Höhenverlauf

Altitude vs Time

uPlot chart will show altitude changes over time

Zweizeiliger Elementsatz

1 58222U 23170S 25353.10563759 .00003457 00000-0 27064-3 0 9997
2 58222 43.0047 274.1062 0001735 269.3539 90.7105 15.02572007118151
Epoch: 19. Dez. 2025 • Age: 14 hours

Aktueller Status

Höhe 562.5 km
Geschwindigkeit 7.58 km/s
Subsatellitenpunkt -19.11°S, 90.85°W
Startdatum 4. Nov. 2023
Alter 2.1 years
Typ internet

Technische Details

Klassifizierung Payload
Masse 730.00 kg
Trockenmasse 700.00 kg
Gesamtmasse 730.00 kg
Länge 0.30 m
Durchmesser 4.10 m
Spannweite 29.00 m
Form Box + pan
Hersteller SPXS
Bus-Typ Starlink V2M
Phasenstatus In Orbit
Besitzer/Staat SPXS/US

Große Konstellationen

Loading constellations...